Dewpoint
73 73 73 73 72 72 67 68 69 68 68 68 69 69 66 64 63 62 59 57 57 56 55 54 53 53 53 53 53 53 53 54 52 54 54 56 52 53 53 53 55 55 55
71 73 73 73 72 71 69 70 70 69 69 70 68 67 64 62 62 60 56 56 55 54 51 50 50 51 52 52 51 50 50 51 52 50 52 52 51 52 52 51 52 53 54
72 72 73 73 71 70 71 71 71 71 71 69 67 65 63 62 59 56 56 56 54 53 51 50 49 49 49 50 50 50 50 48 49 49 49 51 50 51 50 51 51 52 52
72 72 73 73 71 71 72 71 70 68 68 66 65 64 62 57 55 56 55 55 52 53 53 52 51 50 49 49 49 50 50 48 48 48 48 49 50 50 50 50 48 50 50
72 72 72 71 71 71 71 69 70 67 67 66 65 62 57 56 56 57 55 55 52 50 50 51 53 56 57 57 55 51 48 48 47 46 47 48 48 49 48 50 49 50 50
71 72 72 70 70 70 69 65 66 68 67 65 59 53 53 55 61 61 57 54 53 51 48 47 49 49 49 54 57 58 51 47 46 46 47 45 46 48 49 49 48 48 47
72 72 70 69 68 66 65 66 67 66 64 56 49 48 52 54 60 60 57 52 52 51 49 50 48 47 47 45 50 51 50 54 55 48 47 46 47 48 49 48 47 47 48
72 71 69 68 66 64 64 64 66 64 57 53 49 49 51 54 60 59 59 53 52 51 50 50 50 50 45 46 45 45 46 47 48 51 48 50 49 50 51 50 50 48 49
71 70 68 67 66 65 65 65 63 60 58 54 50 50 49 51 56 58 54 51 50 50 51 51 51 50 53 52 44 45 45 45 50 54 56 55 56 57 57 52 49 46 46
70 69 68 67 66 65 65 63 61 60 58 54 51 49 50 48 53 53 52 52 52 52 53 51 56 53 54 54 46 45 45 45 46 48 49 49 50 51 56 54 50 46 46
70 69 68 67 66 65 64 63 61 59 56 53 50 50 48 46 48 50 53 48 50 48 47 51 54 55 53 53 52 48 47 48 49 49 49 49 49 51 50 49 52 48 46
70 69 67 66 66 65 64 62 60 57 55 52 48 50 49 48 49 50 50 48 49 44 45 48 51 51 51 51 51 52 54 54 51 50 49 48 49 50 47 47 50 52 51
69 68 67 66 66 66 64 61 59 57 54 52 49 50 50 49 48 49 49 48 49 41 42 48 53 50 49 50 52 55 55 51 49 48 49 49 50 47 45 45 46 46 49
68 67 66 66 65 65 62 60 58 57 55 52 50 51 51 50 50 46 46 45 49 48 47 46 50 51 52 52 53 53 49 51 50 48 47 45 45 44 43 44 45 45 45
68 67 66 65 64 63 60 60 59 57 57 52 51 52 52 52 51 49 45 45 44 46 46 43 43 43 45 47 51 46 44 43 42 43 43 43 42 42 42 43 44 44 44
67 66 66 65 62 60 55 55 47 49 48 49 49 50 52 49 47 47 45 44 46 44 42 41 41 43 46 49 50 43 42 43 42 42 42 41 41 40 41 41 41 41 42
67 66 64 64 60 56 56 55 45 42 44 45 47 47 46 46 44 43 43 42 42 44 41 41 43 46 49 52 45 42 41 42 42 40 41 40 38 35 34 35 35 38 39
66 61 65 64 60 57 53 48 42 42 43 42 43 43 42 42 41 40 40 42 42 44 43 42 45 48 52 46 42 42 41 39 37 39 39 35 34 33 32 33 34 35 37
65 65 65 64 61 57 50 46 43 42 41 41 41 41 42 41 40 40 41 40 40 41 43 44 47 49 48 44 43 42 39 37 38 37 35 33 33 33 33 35 35 37 37
65 63 63 62 59 56 53 50 48 46 43 42 42 39 40 41 40 40 41 41 41 42 43 44 46 50 47 43 41 39 38 37 37 36 34 34 34 33 34 34 34 34 34
63 62 59 59 57 53 51 49 46 44 43 44 43 43 42 40 40 41 42 44 44 44 44 46 50 50 43 41 39 38 38 38 38 36 36 35 34 34 34 34 34 34 35
60 55 52 52 51 50 48 47 46 45 45 46 46 47 44 44 43 44 46 47 50 49 50 51 49 44 40 40 39 39 40 40 38 36 35 35 34 33 33 33 34 34 35
55 51 49 48 49 49 47 47 47 47 47 47 47 47 47 47 47 47 48 49 49 49 50 48 45 42 41 41 41 41 41 38 36 35 35 34 33 32 32 33 33 33 34
51 50 50 50 49 48 47 48 48 46 46 46 46 47 47 48 48 48 49 49 50 50 50 46 44 40 41 41 42 41 38 36 35 35 33 32 31 32 32 32 33 35 36
51 51 51 50 50 48 47 47 46 47 46 44 45 46 46 48 48 50 50 50 50 50 47 46 43 39 40 40 41 36 34 32 33 33 31 31 30 30 31 33 35 36 38
49 49 50 48 48 47 47 46 47 47 47 47 46 48 48 49 49 50 51 52 51 49 48 46 43 40 40 41 39 35 31 30 32 30 30 29 30 31 33 35 37 38 39
Lifted_Index
-6 -6 -7 -7 -7 -6 -6 -6 -4 -4 -3 -3 -3 -3 -2 -1 -0 1 3 4 6 9 11 12 12 11 11 12 12 11 10 10 9 9 9 9 10 11 11 11 11 10 9
-6 -6 -7 -7 -6 -6 -6 -5 -4 -3 -2 -2 -2 -2 -1 -0 1 2 4 6 8 10 12 13 12 12 13 13 13 12 12 11 11 11 11 11 12 12 12 12 12 11 10
-6 -7 -7 -7 -6 -5 -4 -4 -3 -2 -2 -1 -1 -1 -0 1 3 4 6 7 9 11 12 13 13 13 13 13 13 13 13 13 13 13 13 13 13 13 13 13 12 12 11
-7 -7 -7 -7 -5 -4 -4 -4 -3 -2 -1 -0 0 1 1 3 5 6 7 8 10 11 12 12 11 11 11 11 11 12 12 13 13 13 13 13 13 13 13 13 12 12 11
-7 -7 -7 -6 -5 -4 -4 -4 -3 -2 -0 0 1 1 2 3 5 7 7 9 10 11 12 12 11 11 10 10 10 10 11 12 12 12 12 12 12 12 12 12 12 12 11
-7 -7 -7 -6 -5 -5 -4 -4 -3 -2 -0 0 1 1 2 4 6 7 8 9 10 11 12 12 12 12 11 11 10 10 10 11 11 11 11 12 12 12 11 11 11 11 11
-7 -7 -7 -6 -6 -5 -5 -4 -3 -2 -1 0 1 1 2 5 6 7 8 9 10 10 11 11 11 12 12 12 11 10 10 10 10 10 11 11 11 10 10 10 10 11 11
-7 -7 -7 -6 -5 -5 -5 -4 -3 -2 -1 0 0 1 3 6 7 7 8 9 10 10 9 9 10 10 11 11 11 10 10 9 9 10 10 9 9 9 9 9 9 9 9
-7 -7 -7 -6 -6 -5 -5 -4 -3 -2 -1 -0 0 2 5 7 8 8 9 9 9 9 9 9 9 9 10 10 9 9 9 8 8 9 8 8 8 8 7 7 8 8 8
-8 -7 -7 -7 -6 -5 -4 -4 -2 -1 -1 -1 -0 3 7 9 9 9 9 9 8 8 8 8 8 8 8 8 8 8 8 7 7 7 7 7 7 7 7 7 7 7 7
-8 -8 -7 -6 -5 -4 -3 -3 -1 -1 -0 -1 0 4 8 10 10 9 9 9 9 9 9 8 8 8 8 8 7 7 6 6 6 6 6 6 6 6 6 6 6 5 5
-8 -7 -6 -6 -5 -3 -3 -2 -1 -0 -0 -1 0 4 9 11 11 10 10 10 10 10 9 9 8 8 8 7 6 5 5 5 5 5 5 6 6 6 6 6 6 5 4
-7 -6 -5 -4 -4 -3 -2 -1 -0 -0 -0 -1 1 5 9 11 11 11 11 11 10 9 9 8 8 7 7 6 5 4 4 4 4 5 6 7 7 6 6 6 5 5 5
-6 -5 -4 -4 -3 -2 -1 -0 -0 -0 -0 -0 3 6 8 8 9 9 9 9 8 8 8 8 7 7 6 5 4 4 3 4 4 6 7 7 7 6 6 5 5 5 5
-5 -4 -4 -3 -2 -1 -1 -0 -0 -0 0 2 5 7 7 7 7 7 7 7 7 8 8 8 7 6 5 4 3 3 3 4 5 7 8 8 8 7 6 6 6 6 6
-4 -4 -4 -3 -2 -1 -1 -1 -0 0 2 4 6 7 7 6 6 6 6 6 7 8 8 7 6 5 4 3 3 3 4 5 7 8 9 9 9 8 8 9 9 8 8
-4 -4 -4 -3 -2 -1 -1 -0 -0 1 4 6 6 7 7 6 6 7 7 7 8 8 7 6 5 4 3 2 2 3 4 6 8 9 9 9 9 10 10 10 11 10 10
-5 -4 -4 -3 -2 -1 -1 -0 1 2 4 6 7 7 7 7 7 7 8 8 8 7 6 5 5 4 3 2 2 3 5 7 8 9 10 10 10 10 10 11 11 11 11
-5 -4 -4 -3 -2 -1 -0 1 2 3 5 6 7 7 8 8 8 8 7 7 6 5 5 4 4 3 2 2 2 4 5 7 8 9 10 10 10 10 11 12 12 12 11
-5 -4 -4 -3 -2 -1 1 2 4 5 5 6 6 7 7 7 7 7 6 6 5 4 4 3 2 2 2 2 3 4 5 7 8 9 9 10 10 11 12 13 13 12 11
-4 -4 -3 -2 -1 0 2 4 5 6 6 6 6 6 6 6 6 6 5 5 4 3 3 2 2 1 2 2 3 4 5 6 8 9 9 9 10 11 12 13 13 12 10
-4 -3 -2 -1 0 2 4 5 5 6 6 6 6 5 5 5 5 5 5 4 4 3 3 2 2 1 1 2 3 4 5 6 8 8 9 9 10 11 12 13 13 11 9
-3 -2 -1 1 2 3 5 5 5 5 5 5 5 5 4 4 4 4 4 4 3 3 3 2 2 1 1 2 3 4 5 6 8 9 9 10 11 12 12 12 11 9 8
-0 0 1 2 3 5 5 5 5 5 5 5 5 4 4 4 4 4 4 3 3 2 2 2 1 1 1 2 3 5 6 7 8 9 10 11 11 12 12 11 10 9 8
2 2 3 3 4 5 5 5 5 5 5 5 4 4 4 4 4 4 3 2 2 2 2 1 1 1 1 2 3 5 6 7 9 10 11 11 11 12 11 10 9 9 8
3 4 4 4 4 5 5 5 5 5 5 4 4 4 4 4 3 3 3 2 2 2 1 1 1 1 1 2 3 4 6 8 9 11 11 11 11 11 11 10 9 9 8